CAPE
52 44 0 0 0 0 0 0 0 0 0 0 0 0 0 0 0 0 0 0 0 0 2 6 10 12 16
81 77 0 0 0 0 0 0 0 0 0 0 0 0 0 0 0 0 0 0 0 1 2 4 8 12 14
78 73 0 0 0 0 0 0 0 0 0 0 0 0 0 0 0 0 0 0 0 1 2 2 7 17 20
63 37 0 0 0 0 0 0 0 0 0 0 0 0 0 0 0 0 0 0 1 1 3 7 15 13 20
18 0 0 0 0 0 0 0 0 0 0 0 0 0 0 0 0 0 0 0 1 3 7 12 13 15 20
9 0 0 0 0 0 0 0 0 0 0 0 0 0 0 0 0 0 0 0 1 6 7 13 7 12 15
143 1 0 0 0 0 0 0 0 0 0 0 0 0 0 0 0 0 0 0 2 3 6 8 10 10 12
34 18 3 0 0 0 0 0 0 0 0 0 0 0 0 0 0 0 0 0 0 2 3 4 7 9 8
0 0 0 0 0 0 0 0 0 0 0 0 0 0 0 0 0 0 0 0 0 1 1 2 3 5 2
0 0 0 0 1 0 0 0 0 0 0 0 0 0 0 0 0 0 0 0 0 0 0 0 0 0 0
0 0 0 0 0 0 0 0 0 0 0 0 0 0 0 0 0 0 0 0 0 0 0 0 0 0 0
0 0 0 0 0 0 0 0 0 0 0 0 0 0 0 0 0 0 0 0 0 0 0 0 0 0 1
0 0 0 0 0 0 1 0 0 0 0 0 0 0 0 0 0 0 0 0 0 0 0 0 0 0 0
0 0 0 0 0 0 0 0 0 0 0 0 0 0 0 0 0 0 0 0 0 0 0 0 0 0 0
0 0 0 0 1 0 0 2 0 0 0 0 0 0 0 0 0 0 0 0 0 0 0 0 0 0 0
0 0 0 0 0 1 0 0 0 0 0 0 0 0 0 0 0 0 0 0 0 0 0 0 0 0 0
0 0 0 0 0 0 0 0 0 0 0 0 0 0 0 0 0 0 0 0 0 0 0 0 0 0 0
CIN
-90 -112 0 0 0 0 0 0 0 0 0 0 0 0 0 0 0 0 0 0 0 0 0 0 0 0 0
-55 -62 0 0 0 0 0 0 0 0 0 0 0 0 0 0 0 0 0 0 0 0 0 0 0 0 0
-55 -34 0 0 0 0 0 0 0 0 0 0 0 0 0 0 0 0 0 0 0 0 0 0 0 0 0
-23 -9 0 0 0 0 0 0 0 0 0 0 0 0 0 0 0 0 0 0 0 0 0 0 0 0 0
-16 -12 0 0 0 0 0 0 0 0 0 0 0 0 0 0 0 0 0 0 0 0 0 0 0 0 0
-30 -1 0 0 0 0 0 0 0 0 0 0 0 0 0 0 0 0 0 0 0 0 0 0 0 0 0
-5 -6 0 0 0 0 0 0 0 0 0 0 0 0 0 0 0 0 0 0 0 0 0 0 0 0 0
-48 -18 -4 0 0 0 0 0 0 0 0 0 0 0 0 0 0 0 0 0 0 0 0 0 0 0 0
-2 -5 0 0 0 0 0 0 0 0 0 0 0 0 0 0 0 0 0 0 0 0 0 0 0 0 0
0 0 0 0 0 0 0 0 0 0 0 0 0 0 0 0 0 0 0 0 0 0 0 0 0 0 0
0 0 0 0 0 0 0 0 0 0 0 0 0 0 0 0 0 0 0 0 0 0 0 0 0 0 0
0 0 0 0 0 0 0 0 0 0 0 0 0 0 0 0 0 0 0 0 0 0 0 0 0 0 0
0 0 0 0 0 0 0 0 0 0 0 0 0 0 0 0 0 0 0 0 0 0 0 0 0 0 0
0 0 0 0 0 0 0 0 0 0 0 0 0 0 0 0 0 0 0 0 0 0 0 0 0 0 0
0 0 0 0 0 0 0 0 0 0 0 0 0 0 0 0 0 0 0 0 0 0 0 0 0 0 0
0 0 0 0 0 0 0 0 0 0 0 0 0 0 0 0 0 0 0 0 0 0 0 0 0 0 0
0 0 0 0 0 0 0 0 0 0 0 0 0 0 0 0 0 0 0 0 0 0 0 0 0 0 0
Wind_Speed
11 8 6 9 6 4 5 7 9 19 20 18 17 16 16 14 12 10 9 8 10 11 12 13 14 14 16
13 8 5 6 6 8 6 6 8 18 20 19 19 17 15 13 11 9 9 8 10 11 12 13 14 16 15
14 8 3 4 3 5 7 7 7 16 20 20 18 16 14 11 10 10 11 10 11 12 13 14 16 15 16
13 10 2 3 2 6 6 6 7 8 13 13 14 14 13 11 11 12 12 12 13 13 14 15 16 14 17
12 7 5 4 10 7 9 8 9 5 6 5 4 4 5 10 10 12 13 13 13 13 15 17 13 16 17
12 11 13 10 7 9 8 4 5 5 5 4 5 4 5 4 11 13 14 13 12 15 16 16 14 17 17
15 15 16 15 12 11 12 7 5 3 4 3 4 4 4 6 14 15 15 14 14 15 16 16 17 18 18
18 16 16 10 17 14 10 7 7 3 3 3 2 4 4 4 16 15 14 14 13 15 15 16 18 18 18
14 16 15 21 17 11 10 11 4 4 4 1 3 2 2 3 4 11 13 10 12 15 16 17 17 18 12
2 4 6 8 15 10 14 11 6 2 5 6 3 3 2 3 1 1 1 9 13 15 15 16 17 5 4
6 6 6 6 7 5 5 8 7 3 6 5 3 2 2 1 2 2 2 2 3 5 13 17 16 11 5
7 7 8 7 6 7 9 7 5 6 10 5 4 4 3 0 2 2 1 3 4 5 4 8 14 15 16
8 6 7 8 11 9 9 10 9 8 5 4 5 4 3 3 2 2 4 2 5 6 4 4 4 4 5
6 6 8 7 10 7 6 5 5 3 3 6 5 5 2 2 2 6 5 3 2 4 4 5 4 5 6
6 7 8 7 8 8 6 5 3 5 3 1 2 4 4 5 6 7 6 6 6 7 4 6 5 5 6
5 6 7 6 6 7 6 5 5 3 3 2 2 3 4 6 16 6 3 6 5 5 4 7 8 5 6
6 6 6 6 7 6 6 6 4 2 2 2 2 3 1 1 4 10 6 6 5 6 6 6 9 8 7
Wind_Direction
250 243 212 201 187 191 164 178 187 190 189 189 197 208 213 214 225 236 238 257 272 278 282 281 286 291 287
254 238 199 205 198 181 187 202 205 191 192 195 203 213 217 214 226 226 237 258 266 274 279 280 281 278 278
255 243 148 156 153 199 202 215 203 200 193 196 204 218 215 224 227 235 245 253 259 265 271 270 267 278 282
241 236 170 157 174 193 182 194 199 193 193 190 201 211 217 221 235 243 246 243 254 261 262 263 263 273 278
236 206 181 168 192 196 204 190 197 179 188 186 171 191 224 235 231 235 238 243 248 255 266 261 268 275 282
234 217 212 207 168 194 177 171 189 195 167 201 158 200 205 184 223 225 235 240 249 260 258 259 269 276 278
257 233 215 199 186 181 190 185 167 165 121 175 170 219 209 207 223 232 238 243 249 250 252 263 263 270 273
246 245 244 201 192 192 176 114 77 99 118 172 177 193 194 209 227 236 246 248 244 243 254 265 267 271 273
254 253 216 181 165 136 148 155 133 160 178 125 191 149 202 232 234 249 242 223 237 252 262 266 266 269 275
105 79 134 156 165 192 152 152 122 133 189 147 158 137 242 259 177 195 182 247 262 269 265 269 268 247 228
127 111 112 107 100 105 104 143 135 117 180 119 133 145 191 273 310 264 199 269 282 281 282 277 275 264 219
155 151 143 127 105 97 91 80 63 124 145 120 130 138 131 151 252 312 323 274 249 263 253 266 278 278 275
172 158 140 130 116 100 84 95 79 92 118 124 122 132 148 184 203 240 317 310 287 265 267 252 237 229 259
151 119 122 139 123 124 126 126 111 127 148 131 138 146 185 212 196 260 223 265 273 288 261 268 250 234 239
115 124 127 142 128 130 135 149 130 151 140 119 193 182 201 187 252 241 256 251 244 261 245 268 255 237 242
113 129 134 136 141 128 133 156 147 124 124 155 102 24 342 272 221 245 221 251 249 247 253 274 277 258 246
121 121 118 118 149 135 146 151 115 111 143 111 113 110 71 288 294 227 232 247 261 271 260 246 268 279 273